Voltar ao catálogo

CZ-6A DEB

AtivoSSO
NORAD 56593·DEBRIS·🇨🇳 China

Lançado Nov 11, 2022 de Taiyuan Satellite Launch Center

Loading…

Próximas Passagens (próximas 24 horas)

TLE

AtualizadoSource: Space-Track

Época: Sep 14, 2026, 14:12 UTC

1 56593U 22151ADR 26257.59232320  .00001704  00000-0  48572-3 0  9998
2 56593  98.6524 303.9073 0118565 110.4446 250.9521 14.42530230178436

Acompanhe CZ-6A DEB em tempo real com AllMySat

Download on the App Store